TimeEST,TemperatureF,Dew PointF,Humidity,Sea Level PressureIn,VisibilityMPH,Wind Direction,Wind SpeedMPH,Gust SpeedMPH,PrecipitationIn,Events,Conditions,WindDirDegrees,DateUTC
12:53 AM,34.0,27.0,75,30.09,10.0,NNE,5.8,-,N/A,,Clear,20,2012-11-07 05:53:00
1:53 AM,35.1,27.0,72,30.09,10.0,North,5.8,-,N/A,,Clear,10,2012-11-07 06:53:00
2:53 AM,36.0,28.0,73,30.06,10.0,NNE,9.2,-,N/A,,Scattered Clouds,30,2012-11-07 07:53:00
3:53 AM,37.0,28.0,70,30.00,10.0,NNE,9.2,-,N/A,,Clear,20,2012-11-07 08:53:00
4:53 AM,39.0,30.0,70,29.99,10.0,NNE,11.5,20.7,N/A,,Mostly Cloudy,30,2012-11-07 09:53:00
5:53 AM,39.9,30.0,68,29.96,10.0,NNE,11.5,19.6,N/A,,Partly Cloudy,30,2012-11-07 10:53:00
6:53 AM,39.9,30.0,68,29.93,10.0,NNE,15.0,25.3,N/A,,Scattered Clouds,20,2012-11-07 11:53:00
7:53 AM,39.9,30.0,68,29.93,10.0,North,13.8,21.9,N/A,,Overcast,10,2012-11-07 12:53:00
8:53 AM,39.9,30.0,68,29.91,10.0,NNE,12.7,23.0,N/A,,Overcast,20,2012-11-07 13:53:00
9:53 AM,41.0,30.9,67,29.89,10.0,North,10.4,21.9,N/A,,Overcast,10,2012-11-07 14:53:00
10:53 AM,42.1,32.0,67,29.86,10.0,North,13.8,26.5,0.00,Rain,Light Rain,10,2012-11-07 15:53:00
11:28 AM,41.0,33.8,76,29.84,6.0,NNE,16.1,24.2,0.00,Rain,Light Rain,20,2012-11-07 16:28:00
11:53 AM,39.0,34.0,82,29.82,4.0,North,13.8,32.2,0.02,Rain,Light Rain,10,2012-11-07 16:53:00
12:48 PM,37.4,35.6,93,29.78,4.0,NNE,16.1,31.1,0.05,Rain,Light Rain,20,2012-11-07 17:48:00
12:53 PM,37.0,35.1,93,29.78,4.0,NNE,20.7,31.1,0.05,Rain,Light Rain,20,2012-11-07 17:53:00
1:53 PM,36.0,35.1,97,29.76,3.0,NNE,11.5,19.6,0.05,Rain,Light Rain,20,2012-11-07 18:53:00
2:53 PM,35.1,34.0,96,29.74,6.0,North,15.0,24.2,0.02,Rain,Light Rain,10,2012-11-07 19:53:00
3:49 PM,35.6,33.8,93,29.74,2.0,NNE,18.4,28.8,0.03,Snow,Light Snow,20,2012-11-07 20:49:00
3:53 PM,34.0,33.1,96,29.74,1.8,NNE,15.0,28.8,0.04,Snow,Light Snow,20,2012-11-07 20:53:00
4:21 PM,33.8,32.0,93,29.73,1.2,NNE,15.0,26.5,0.04,Snow,Light Snow,20,2012-11-07 21:21:00
4:53 PM,33.1,32.0,96,29.71,1.5,NNE,17.3,28.8,0.06,Snow,Light Snow,20,2012-11-07 21:53:00
5:53 PM,33.1,32.0,96,29.72,1.2,North,13.8,24.2,0.02,Snow,Light Snow,10,2012-11-07 22:53:00
6:27 PM,33.8,32.0,93,29.72,1.8,North,16.1,32.2,0.00,Snow,Light Snow,10,2012-11-07 23:27:00
6:34 PM,33.8,32.0,93,29.71,2.0,North,19.6,32.2,0.00,Snow,Light Snow,10,2012-11-07 23:34:00
6:49 PM,33.8,32.0,93,29.71,1.8,North,19.6,31.1,0.00,Snow,Light Snow,10,2012-11-07 23:49:00
6:53 PM,33.1,32.0,96,29.70,2.0,North,21.9,34.5,0.00,Snow,Light Snow,10,2012-11-07 23:53:00
7:07 PM,33.8,32.0,93,29.69,4.0,North,19.6,35.7,0.00,Snow,Light Snow,10,2012-11-08 00:07:00
7:53 PM,33.1,32.0,96,29.68,5.0,North,20.7,38.0,0.00,Snow,Light Snow,10,2012-11-08 00:53:00
8:33 PM,33.8,33.8,100,29.67,10.0,North,23.0,38.0,0.00,,Overcast,10,2012-11-08 01:33:00
8:53 PM,33.1,33.1,100,29.66,10.0,North,21.9,42.6,0.00,,Overcast,10,2012-11-08 01:53:00
9:53 PM,34.0,33.1,96,29.64,10.0,North,21.9,34.5,0.00,,Overcast,10,2012-11-08 02:53:00
10:53 PM,34.0,33.1,96,29.62,10.0,North,19.6,36.8,0.00,Rain,Light Rain,10,2012-11-08 03:53:00
11:53 PM,34.0,34.0,100,29.61,10.0,North,25.3,39.1,0.00,,Overcast,360,2012-11-08 04:53:00